UAE6W OPIS-OMDB

Flight info

Callsign UAE6W
Flight time N/A
Altitude 34000
Route KALMI DCT NONIB DCT OGASA DCT HANGU DCT LAKRA DCT SAJAN DCT REGET DCT ZB DCT PARLO DCT KABRA DCT DALTI DCT KALAT DCT ATRIS DCT PG DCT ADGUL DCT TAPDO DCT VUSET DCT UMEKO DCT BORER DCT PASOV DCT KUPMA DCT ORKOB DCT MIVEK DCT IMPED
Aircraft B77W/H-SDE1E2E3FGHIJ2J3J4J5M1RWXY/LB1D1

Departure

Time N/A
Airport Islamabad International Airport (OPIS)

Arrival

Time 2026-05-03 22:08
Airport Dubai International Airport (OMDB)
Time Latitude Longitude Altitude Speed Heading
2026-05-03 21:10 24.16471 60.21824 35688 ft 454 kts 261°
2026-05-03 21:10 24.15750 60.18474 35688 ft 454 kts 261°
2026-05-03 21:11 24.14309 60.11788 35692 ft 454 kts 261°
2026-05-03 21:11 24.12856 60.05059 35704 ft 454 kts 261°
2026-05-03 21:12 24.11391 59.98295 35699 ft 455 kts 261°
2026-05-03 21:12 24.09941 59.91609 35713 ft 455 kts 261°
2026-05-03 21:13 24.08469 59.84843 35702 ft 455 kts 261°
2026-05-03 21:13 24.07010 59.78148 35703 ft 456 kts 261°
2026-05-03 21:14 24.05534 59.71390 35711 ft 457 kts 261°
2026-05-03 21:14 24.04054 59.64629 35713 ft 457 kts 261°
2026-05-03 21:15 24.02569 59.57862 35716 ft 458 kts 261°
2026-05-03 21:15 24.01081 59.51094 35715 ft 458 kts 261°
2026-05-03 21:16 23.99591 59.44334 35719 ft 457 kts 260°
2026-05-03 21:16 23.98098 59.37575 35715 ft 457 kts 260°
2026-05-03 21:17 23.96857 59.31969 35714 ft 457 kts 260°
2026-05-03 21:17 23.95117 59.24118 35718 ft 456 kts 260°
2026-05-03 21:18 23.93785 59.17409 35720 ft 451 kts 268°
2026-05-03 21:18 23.94043 59.10634 35729 ft 446 kts 281°
2026-05-03 21:19 23.95749 59.04154 35725 ft 444 kts 290°
2026-05-03 21:19 23.97865 58.97803 35720 ft 445 kts 290°
2026-05-03 21:20 23.99956 58.91424 35724 ft 447 kts 290°
2026-05-03 21:20 24.02018 58.85013 35734 ft 447 kts 290°
2026-05-03 21:21 24.04069 58.78594 35728 ft 447 kts 290°
2026-05-03 21:21 24.06106 58.72212 35725 ft 447 kts 290°
2026-05-03 21:22 24.08156 58.65780 35728 ft 448 kts 290°
2026-05-03 21:22 24.10208 58.59338 35730 ft 448 kts 290°
2026-05-03 21:23 24.12240 58.52936 35731 ft 447 kts 290°
2026-05-03 21:23 24.14288 58.46462 35710 ft 446 kts 290°
2026-05-03 21:24 24.16313 58.40047 35736 ft 446 kts 290°
2026-05-03 21:24 24.18335 58.33636 35736 ft 445 kts 290°
2026-05-03 21:25 24.20349 58.27236 35726 ft 444 kts 290°
2026-05-03 21:25 24.22361 58.20837 35735 ft 444 kts 289°
2026-05-03 21:26 24.24356 58.14478 35730 ft 444 kts 289°
2026-05-03 21:26 24.26358 58.08088 35741 ft 445 kts 289°
2026-05-03 21:27 24.28365 58.01669 35737 ft 445 kts 289°
2026-05-03 21:27 24.30372 57.95243 35733 ft 446 kts 289°
2026-05-03 21:28 24.32376 57.88813 35735 ft 447 kts 289°
2026-05-03 21:28 24.34052 57.83426 35734 ft 447 kts 289°
2026-05-03 21:29 24.36041 57.77027 35735 ft 448 kts 289°
2026-05-03 21:29 24.38046 57.70563 35734 ft 447 kts 289°
2026-05-03 21:30 24.40059 57.64063 35711 ft 446 kts 289°
2026-05-03 21:30 24.41037 57.60899 35512 ft 443 kts 289°
2026-05-03 21:30 24.42013 57.57740 35203 ft 445 kts 289°
2026-05-03 21:31 24.43006 57.54525 34837 ft 446 kts 289°
2026-05-03 21:31 24.44004 57.51293 34494 ft 447 kts 289°
2026-05-03 21:31 24.45003 57.48054 34114 ft 449 kts 289°
2026-05-03 21:31 24.46007 57.44805 33696 ft 451 kts 289°
2026-05-03 21:32 24.47014 57.41540 33246 ft 452 kts 289°
2026-05-03 21:32 24.48016 57.38290 32830 ft 452 kts 289°
2026-05-03 21:32 24.50020 57.31783 32754 ft 450 kts 289°
2026-05-03 21:33 24.51021 57.28525 32471 ft 451 kts 289°
2026-05-03 21:33 24.52026 57.25255 32073 ft 453 kts 289°
2026-05-03 21:33 24.53001 57.22077 31676 ft 456 kts 289°
2026-05-03 21:33 24.54017 57.18765 31226 ft 459 kts 289°
2026-05-03 21:34 24.55034 57.15443 30816 ft 461 kts 289°
2026-05-03 21:34 24.56051 57.12120 30469 ft 461 kts 289°
2026-05-03 21:34 24.57053 57.08845 30207 ft 459 kts 289°
2026-05-03 21:34 24.58061 57.05545 29861 ft 457 kts 289°
2026-05-03 21:35 24.59071 57.02234 29063 ft 455 kts 289°
2026-05-03 21:35 24.60070 56.98960 28357 ft 449 kts 290°
2026-05-03 21:35 24.61057 56.95720 27681 ft 444 kts 290°
2026-05-03 21:35 24.62029 56.92528 27038 ft 439 kts 290°
2026-05-03 21:36 24.62991 56.89368 26395 ft 434 kts 290°
2026-05-03 21:36 24.63984 56.86253 25761 ft 429 kts 292°
2026-05-03 21:36 24.65187 56.83269 25135 ft 425 kts 297°
2026-05-03 21:36 24.66620 56.80439 24507 ft 422 kts 302°
2026-05-03 21:37 24.68153 56.77702 23887 ft 420 kts 302°
2026-05-03 21:37 24.69658 56.75003 23271 ft 418 kts 302°
2026-05-03 21:37 24.71164 56.72286 22570 ft 415 kts 302°
2026-05-03 21:37 24.72657 56.69583 21938 ft 412 kts 302°
2026-05-03 21:38 24.74132 56.66903 21325 ft 408 kts 302°
2026-05-03 21:38 24.75595 56.64240 20719 ft 405 kts 302°
2026-05-03 21:38 24.77037 56.61613 20168 ft 402 kts 302°
2026-05-03 21:38 24.78475 56.58991 19587 ft 399 kts 302°
2026-05-03 21:39 24.79906 56.56381 19000 ft 397 kts 302°
2026-05-03 21:39 24.81327 56.53788 18410 ft 395 kts 302°
2026-05-03 21:39 24.82729 56.51228 17991 ft 393 kts 302°
2026-05-03 21:39 24.84145 56.48643 17813 ft 400 kts 302°
2026-05-03 21:40 24.85577 56.46027 17763 ft 396 kts 302°
2026-05-03 21:40 24.86944 56.43439 17417 ft 389 kts 297°
2026-05-03 21:40 24.87879 56.40641 16857 ft 390 kts 286°
2026-05-03 21:40 24.88373 56.37701 16198 ft 391 kts 278°
2026-05-03 21:41 24.88389 56.34708 15532 ft 393 kts 268°
2026-05-03 21:41 24.88175 56.31710 14924 ft 392 kts 268°
2026-05-03 21:41 24.88010 56.28729 14404 ft 385 kts 271°
2026-05-03 21:41 24.88291 56.25859 14109 ft 370 kts 284°
2026-05-03 21:42 24.89001 56.23267 13958 ft 339 kts 292°
2026-05-03 21:42 24.89975 56.21031 13791 ft 312 kts 301°
2026-05-03 21:42 24.91009 56.19047 13627 ft 290 kts 301°
2026-05-03 21:42 24.91994 56.17152 13364 ft 283 kts 301°
2026-05-03 21:43 24.92958 56.15292 13178 ft 276 kts 300°
2026-05-03 21:43 24.93893 56.13472 12953 ft 270 kts 300°
2026-05-03 21:43 24.94812 56.11676 12653 ft 269 kts 300°
2026-05-03 21:43 24.95724 56.09892 12323 ft 268 kts 300°
2026-05-03 21:44 24.96627 56.08122 12143 ft 261 kts 300°
2026-05-03 21:44 24.97540 56.06429 12068 ft 257 kts 307°
2026-05-03 21:44 24.98720 56.04911 12053 ft 264 kts 313°
2026-05-03 21:44 24.99999 56.03428 12023 ft 269 kts 313°
2026-05-03 21:45 25.01283 56.01930 12014 ft 268 kts 313°
2026-05-03 21:45 25.02545 56.00431 12015 ft 266 kts 312°
2026-05-03 21:45 25.03775 55.98951 12017 ft 264 kts 312°
2026-05-03 21:45 25.05027 55.97438 11824 ft 263 kts 312°
2026-05-03 21:46 25.06256 55.95947 11527 ft 262 kts 312°
2026-05-03 21:46 25.07475 55.94456 11195 ft 262 kts 312°
2026-05-03 21:46 25.08689 55.92966 10896 ft 260 kts 311°
2026-05-03 21:46 25.09890 55.91491 10655 ft 256 kts 311°
2026-05-03 21:47 25.11070 55.90042 10520 ft 252 kts 311°
2026-05-03 21:47 25.12244 55.88601 10403 ft 254 kts 311°
2026-05-03 21:47 25.13437 55.87136 10287 ft 258 kts 311°
2026-05-03 21:47 25.14642 55.85656 10161 ft 260 kts 311°
2026-05-03 21:48 25.15837 55.84153 9975 ft 261 kts 307°
2026-05-03 21:48 25.16839 55.82468 9726 ft 263 kts 301°
2026-05-03 21:48 25.17769 55.80733 9430 ft 262 kts 301°
2026-05-03 21:48 25.18700 55.79016 9149 ft 259 kts 301°
2026-05-03 21:49 25.19613 55.77342 8895 ft 256 kts 301°
2026-05-03 21:49 25.20532 55.75672 8611 ft 253 kts 301°
2026-05-03 21:49 25.21456 55.74003 8341 ft 250 kts 301°
2026-05-03 21:49 25.22346 55.72401 8079 ft 247 kts 302°
2026-05-03 21:50 25.23234 55.70805 7851 ft 243 kts 302°
2026-05-03 21:50 25.24117 55.69227 7622 ft 240 kts 302°
2026-05-03 21:50 25.24984 55.67676 7385 ft 238 kts 302°
2026-05-03 21:50 25.25850 55.66126 7163 ft 236 kts 301°
2026-05-03 21:51 25.26709 55.64585 6936 ft 235 kts 301°
2026-05-03 21:51 25.27554 55.63068 6720 ft 236 kts 301°
2026-05-03 21:51 25.28422 55.61508 6502 ft 240 kts 301°
2026-05-03 21:51 25.29062 55.59834 6238 ft 239 kts 278°
2026-05-03 21:52 25.28887 55.58018 6110 ft 243 kts 253°
2026-05-03 21:52 25.28071 55.56372 6062 ft 249 kts 235°
2026-05-03 21:52 25.26712 55.55133 5878 ft 261 kts 209°
2026-05-03 21:52 25.24899 55.54822 5765 ft 272 kts 175°
2026-05-03 21:53 25.23145 55.55607 5664 ft 279 kts 143°
2026-05-03 21:53 25.21909 55.57247 5584 ft 279 kts 121°
2026-05-03 21:53 25.20897 55.59097 5485 ft 284 kts 122°
2026-05-03 21:53 25.19871 55.60958 5377 ft 287 kts 122°
2026-05-03 21:54 25.18840 55.62836 5281 ft 284 kts 122°
2026-05-03 21:54 25.17818 55.64685 5174 ft 279 kts 122°
2026-05-03 21:54 25.16811 55.66499 5077 ft 275 kts 122°
2026-05-03 21:54 25.15826 55.68271 4981 ft 275 kts 122°
2026-05-03 21:55 25.14826 55.70065 4889 ft 274 kts 122°
2026-05-03 21:55 25.13828 55.71854 4795 ft 274 kts 122°
2026-05-03 21:55 25.12828 55.73643 4718 ft 274 kts 122°
2026-05-03 21:55 25.11825 55.75440 4632 ft 275 kts 122°
2026-05-03 21:56 25.10818 55.77243 4540 ft 277 kts 122°
2026-05-03 21:56 25.09806 55.79051 4427 ft 278 kts 122°
2026-05-03 21:56 25.08791 55.80865 4336 ft 278 kts 122°
2026-05-03 21:56 25.07770 55.82681 4239 ft 277 kts 125°
2026-05-03 21:57 25.06440 55.84152 4122 ft 271 kts 154°
2026-05-03 21:57 25.04663 55.84704 4094 ft 264 kts 185°
2026-05-03 21:57 25.02880 55.84387 4054 ft 256 kts 205°
2026-05-03 21:57 25.01486 55.83319 4032 ft 240 kts 240°
2026-05-03 21:58 25.00992 55.81630 4045 ft 232 kts 272°
2026-05-03 21:58 25.01224 55.79903 4047 ft 231 kts 288°
2026-05-03 21:58 25.01869 55.78332 4052 ft 231 kts 300°
2026-05-03 21:58 25.02720 55.76803 4047 ft 236 kts 302°
2026-05-03 21:59 25.03613 55.75266 4049 ft 239 kts 302°
2026-05-03 21:59 25.04511 55.73710 4042 ft 241 kts 302°
2026-05-03 21:59 25.05388 55.72166 4038 ft 237 kts 302°
2026-05-03 21:59 25.06233 55.70666 4023 ft 224 kts 301°
2026-05-03 22:00 25.07026 55.69255 4010 ft 208 kts 301°
2026-05-03 22:00 25.07757 55.67952 4008 ft 191 kts 302°
2026-05-03 22:00 25.08459 55.66746 4036 ft 188 kts 302°
2026-05-03 22:00 25.09167 55.65510 3986 ft 193 kts 301°
2026-05-03 22:01 25.09879 55.64247 3692 ft 196 kts 301°
2026-05-03 22:01 25.10587 55.62977 3472 ft 190 kts 301°
2026-05-03 22:01 25.11258 55.61770 3287 ft 184 kts 300°
2026-05-03 22:01 25.11902 55.60608 3042 ft 179 kts 300°
2026-05-03 22:02 25.12544 55.59452 2765 ft 177 kts 300°
2026-05-03 22:02 25.13172 55.58319 2617 ft 167 kts 300°
2026-05-03 22:02 25.13786 55.57209 2580 ft 174 kts 300°
2026-05-03 22:02 25.14429 55.56048 2595 ft 179 kts 300°
2026-05-03 22:03 25.15079 55.54874 2546 ft 179 kts 300°
2026-05-03 22:03 25.15713 55.53732 2531 ft 168 kts 301°
2026-05-03 22:03 25.16314 55.52646 2523 ft 163 kts 301°
2026-05-03 22:03 25.16907 55.51575 2401 ft 166 kts 300°
2026-05-03 22:04 25.17483 55.50537 2225 ft 152 kts 300°
2026-05-03 22:04 25.18017 55.49571 2015 ft 144 kts 300°
2026-05-03 22:04 25.18541 55.48625 1843 ft 144 kts 300°
2026-05-03 22:04 25.19055 55.47697 1656 ft 141 kts 300°
2026-05-03 22:05 25.19562 55.46780 1485 ft 140 kts 300°
2026-05-03 22:05 25.20073 55.45857 1301 ft 140 kts 300°
2026-05-03 22:05 25.20564 55.44971 1113 ft 131 kts 300°
2026-05-03 22:05 25.21065 55.44063 984 ft 145 kts 301°
2026-05-03 22:06 25.21595 55.43109 776 ft 149 kts 300°
2026-05-03 22:06 25.21849 55.42649 700 ft 152 kts 300°
2026-05-03 22:06 25.22408 55.41638 497 ft 155 kts 300°
2026-05-03 22:06 25.22978 55.40625 251 ft 154 kts 299°
2026-05-03 22:07 25.23522 55.39623 91 ft 152 kts 299°
2026-05-03 22:07 25.24058 55.38654 30 ft 138 kts 299°
2026-05-03 22:07 25.24468 55.37902 29 ft 98 kts 301°
2026-05-03 22:07 25.24795 55.37311 29 ft 78 kts 301°
2026-05-03 22:08 25.25019 55.36883 29 ft 33 kts 282°
2026-05-03 22:08 25.25019 55.36681 27 ft 17 kts 270°
2026-05-03 22:08 25.25021 55.36574 26 ft 9 kts 257°
2026-05-03 22:08 25.24967 55.36574 26 ft 9 kts 155°
2026-05-03 22:09 25.24916 55.36619 30 ft 10 kts 119°
2026-05-03 22:09 25.24884 55.36688 26 ft 10 kts 111°
2026-05-03 22:09 25.24866 55.36766 26 ft 11 kts 101°
2026-05-03 22:10 25.24783 55.36861 26 ft 11 kts 203°
2026-05-03 22:10 25.24715 55.36821 31 ft 12 kts 214°
2026-05-03 22:10 25.24644 55.36770 30 ft 12 kts 210°
2026-05-03 22:10 25.24568 55.36722 30 ft 13 kts 211°
2026-05-03 22:11 25.24496 55.36667 30 ft 13 kts 221°
2026-05-03 22:11 25.24449 55.36586 31 ft 13 kts 253°
2026-05-03 22:11 25.24457 55.36492 29 ft 13 kts 299°
2026-05-03 22:11 25.24505 55.36405 29 ft 13 kts 302°
2026-05-03 22:12 25.24557 55.36313 32 ft 17 kts 302°
2026-05-03 22:12 25.24626 55.36191 29 ft 20 kts 302°
2026-05-03 22:12 25.24698 55.36062 30 ft 20 kts 302°
2026-05-03 22:12 25.24752 55.35966 29 ft 12 kts 301°
2026-05-03 22:13 25.24796 55.35886 30 ft 12 kts 301°
2026-05-03 22:13 25.24834 55.35817 28 ft 7 kts 301°
2026-05-03 22:13 25.24855 55.35790 31 ft 5 kts 332°
2026-05-03 22:13 25.24887 55.35804 31 ft 6 kts 36°
2026-05-03 22:14 25.24902 55.35816 30 ft 1 kts 36°
2026-05-03 22:14 25.24918 55.35827 30 ft 5 kts 32°
2026-05-03 22:14 25.24925 55.35832 30 ft 0 kts 32°